Regional Weather Roundup
Issued by NWS

Home | Current Version | Previous Version | Text Only | Print | Product List | Glossary Off
Versions: 1 2 3 4 5 6 7 8 9 10 11 12 13 14 15 16 17 18 19 20 21 22 23 24 25 26 27 28 29 30 31 32 33 34 35 36 37 38 39 40 41 42 43 44 45 46 47 48 49 50

000
ASUS43 KMPX 212210
RWRMN
WEATHER ROUNDUP FOR MINNESOTA
NATIONAL WEATHER SERVICE TWIN CITIES/CHANHASSEN MN
500 PM CDT WED JUN 21 2017


NOTE: "FAIR" INDICATES FEW OR NO CLOUDS BELOW 12,000 FEET WITH NO
SIGNIFICANT WEATHER AND/OR OBSTRUCTIONS TO VISIBILITY. N/A MEANS
CURRENT SKY AND/OR WEATHER CONDITIONS ARE NOT AVAILABLE.

MNZ060>063-068>070-212300-
   Twin Cities Metro

CITY           SKY/WX    TMP DP  RH WIND       PRES   REMARKS
TWIN CITIES    MOSUNNY   80  57  45 S15       29.77F
ST PAUL        SUNNY     79  58  48 SE14      29.78F
CRYSTAL        SUNNY     81  55  40 S14G20    29.76F
BLAINE         SUNNY     82  55  39 S16       29.77F
LAKEVILLE      SUNNY     79  59  50 S12       29.78F
EDEN PRAIRIE   SUNNY     80  60  50 S12G18    29.76F
SOUTH ST PAUL  SUNNY     80  55  42 S14G21    29.78F
LAKE ELMO      FAIR      79  55  44 S15       29.80F
$$
MNZ001>005-007-008-013>017-022>024-027-028-212300-
   Northwest Minnesota

CITY           SKY/WX    TMP DP  RH WIND       PRES   REMARKS
BEMIDJI        SUNNY     73  58  59 SE12      29.68F
HALLOCK        MOSUNNY   75  63  64 SE12      29.60F
ROSEAU         LGT RAIN  64  59  82 E9        29.68F VSB 1
WARROAD        CLOUDY    63  57  82 E10       29.71R
THIEF RVR FALL CLOUDY    77  55  46 S16G23    29.66F
CROOKSTON      MOSUNNY   81  57  44 S16       29.62F
FOSSTON        MOSUNNY   75  57  53 S15       29.67F
DETROIT LAKES  SUNNY     81  54  39 S16       29.70F
MOORHEAD       CLOUDY    82  61  47 S13       29.64F
PARK RAPIDS    MOSUNNY   81  52  36 S21G26    29.71F
MAHNOMEN       FAIR      79  57  46 S17G23    29.67S
$$
MNZ006-009>011-018-025>026-212300-
   North Central Minnesota

CITY           SKY/WX    TMP DP  RH WIND       PRES   REMARKS
BAUDETTE       LGT RAIN  62  57  83 SE10      29.70F
FLAG ISLAND    LGT RAIN  59  54  82 E3        29.71F
INTL FALLS     CLOUDY    64  56  75 E8        29.74F
WASKISH        CLOUDY    68  55  64 S10G16    29.70F
BIG FORK       PTSUNNY   66  55  68 SE5       29.75F
LONGVILLE      CLOUDY    73  55  53 SE7       29.74F
GRAND RAPIDS   LGT RAIN  70  56  61 SE7       29.77F
CRANE LAKE     PTSUNNY   64  55  72 CALM      29.80S
ORR            CLOUDY    63  55  77 SE6       29.75F
COOK           DRIZZLE   68  54  60 S5        29.80F
WALKER         CLOUDY    74  55  51 S10       29.73F
$$
MNZ012-019>021-037-212300-
   Northeast Minnesota

CITY           SKY/WX    TMP DP  RH WIND       PRES   REMARKS
DULUTH         PTSUNNY   67  51  56 E13       29.80F
ELY            LGT RAIN  68  48  49 S6        29.82R
HIBBING        LGT RAIN  63  58  83 CALM      29.81R
EVELETH        CLOUDY    67  51  57 CALM      29.84R
DULUTH HARBOR  CLOUDY    59  54  82 NE5       29.80F
TWO HARBORS    CLOUDY    66  52  59 NE6       29.81R
SILVER BAY     MOSUNNY   64  48  55 N3        29.83R
GRAND MARAIS     N/A     54  47  77 CALM      29.84F
G MARAIS ARPRT CLOUDY    61  43  51 SE5       29.88S
$$
MNZ029>031-032-039>041-046>048-054>057-064-212300-
   West Central Minnesota

CITY           SKY/WX    TMP DP  RH WIND       PRES   REMARKS
FERGUS FALLS   MOSUNNY   82  61  47 S15       29.65F
WHEATON        SUNNY     88  59  37 SW9       29.68S
MORRIS         SUNNY     82  63  51 S17       29.69F
ALEXANDRIA     SUNNY     80  59  48 S17       29.74S
ELBOW LAKE     FAIR      82  63  53 S16       29.70F
WADENA         SUNNY     81  55  41 S10G18    29.72S
GLENWOOD       SUNNY     81  61  50 S14G25    29.74F
APPLETON       SUNNY     84  59  42 S6G17     29.69F
BENSON         SUNNY     84  61  45 S13       29.72F
ORTONVILLE     SUNNY     84  63  48 S12G18    29.69S
MADISON        SUNNY     86  64  48 SW7       29.70F
WILLMAR        FAIR      82  63  51 SE10G16   29.75F
$$
MNZ033>034-036-042>043-049>051-058-059-212300-
   Central Minnesota

CITY           SKY/WX    TMP DP  RH WIND       PRES   REMARKS
ST CLOUD       SUNNY     81  56  42 S15       29.75F
SAUK CENTRE    FAIR      82  59  46 S18G24    29.74S
PAYNESVILLE    SUNNY     81  53  37 S13       29.75F
AITKIN         MOSUNNY   75  55  50 S9        29.76S
PINE RIVER     SUNNY     77  57  50 S8        29.77F
BRAINERD       SUNNY     78  54  43 S10       29.76S
STAPLES        SUNNY     81  52  36 S12       29.73F
LONG PRAIRIE   FAIR      81  57  44 SE16G25   29.74F
LITTLE FALLS   SUNNY     81  52  36 S15       29.74F
LITCHFIELD     SUNNY     81  63  54 S7        29.76F
BUFFALO        SUNNY     80  56  43 SE9G17    29.77F
MAPLE LAKE     SUNNY     82  60  46 S8G20     29.77F
HUTCHINSON     SUNNY     80  63  56 S9        29.77F
$$
MNZ037-044-045-052-053-212300-
   East Central Minnesota

CITY           SKY/WX    TMP DP  RH WIND       PRES   REMARKS
PRINCETON      SUNNY     82  55  39 S14       29.76F
MORA           SUNNY     77  52  41 S10       29.78F
CAMBRIDGE      SUNNY     82  59  44 S14G20    29.75F
RUSH CITY      SUNNY     77  54  44 S8        29.78F
MOOSE LAKE     MOSUNNY   77  52  41 S7        29.76F
HINCKLEY       FAIR      77  55  47 S10G18    29.78F
CLOQUET        MOSUNNY   73  48  40 S10       29.78F
MCGREGOR       PTSUNNY   73  54  49 S8        29.78S
$$
MNZ071>073-080-081-089-090-097-098-212300-
   Southwest Minnesota

CITY           SKY/WX    TMP DP  RH WIND       PRES   REMARKS
MONTEVIDEO     SUNNY     84  63  48 SW10G16   29.71F
GRANITE FALLS  SUNNY     83  65  53 S13       29.74S
CANBY          SUNNY     86  63  46 CALM      29.72F
MARSHALL       SUNNY     82  65  56 S12       29.73F
REDWOOD FALLS  SUNNY     81  62  52 SE16      29.74F
OLIVIA         SUNNY     79  61  53 S13       29.74S
PIPESTONE      SUNNY     82  66  57 S9        29.74F
WINDOM         SUNNY     81  64  57 S10       29.75F
WORTHINGTON    SUNNY     81  69  67 SE10      29.75F
JACKSON        SUNNY     79  64  61 S5G16     29.77F
TRACY          SUNNY     81  67  62 SE8       29.75F
SLAYTON        SUNNY     81  57  43 S9        29.77F
$$
MNZ065>067-074>077-082>085-091>093-212300-
   South Central Minnesota

CITY           SKY/WX    TMP DP  RH WIND       PRES   REMARKS
MANKATO        SUNNY     76  62  62 S12G21    29.78F
NEW ULM        SUNNY     77  61  57 SE12      29.76F
ST JAMES       SUNNY     79  64  61 SE13      29.76F
FAIRMONT       SUNNY     76  67  73 S10       29.77F
GLENCOE        SUNNY     81  64  55 SE9       29.76F
FARIBAULT      SUNNY     79  61  53 SE14      29.80F
OWATONNA       SUNNY     77  61  57 S13G21    29.81F
WASECA         SUNNY     77  63  61 SE13      29.81F
ALBERT LEA     CLOUDY    75  61  60 SE13      29.80F
$$
MNZ078>079-086>088-094>096-212300-
   Southeast Minnesota

CITY           SKY/WX    TMP DP  RH WIND       PRES   REMARKS
ROCHESTER      SUNNY     73  59  61 SE14      29.84S
RED WING       SUNNY     79  54  41 S9G20     29.79F
STANTON        SUNNY     78  58  49 SE13      29.78F
DODGE CENTER   SUNNY     75  57  53 S14       29.83S
WINONA         SUNNY     77  55  47 S5        29.83F
AUSTIN         CLOUDY    72  61  68 SE9       29.82F
PRESTON        CLOUDY    71  57  60 S10       29.86R
$$
ABBREVIATIONS USED IN REMARKS
   TC - TEMPERATURES IN CELSIUS
  WCI - WIND CHILL INDEX
   HX - HEAT INDEX
  VSB - VISIBILITY
$$




USA.gov is the U.S. government's official web portal to all federal, state and local government web resources and services.